Location: Colonia Mina de C?rbuni
(46.1667°N, 22.7167°E)
Time: 17:37:09
(UTC+00:00)

Cosmos 1633 - Pass Details

Date: 04 February 2023
Orbit: 423 x 432 km, 82.5° (Epoch: 30 March)

Event Time Altitude Azimuth Distance (km) Brightness Sun altitude
Rises 16:50:23 0° 181° (S) 2,369 6.2 -12.8°
Reaches altitude 10° 16:52:24 10° 178° (S) 1,508 5.2 -13.2°
Maximum altitude 16:55:39 63° 97° (E) 477 2.2 -13.7°
Drops below altitude 10° 16:58:55 10° 15° (NNE) 1,524 4.8 -14.3°
Enters shadow 17:00:14 - 13° (NNE) 2,076 5.6 -14.5°
